Regional Weather Roundup
Issued by NWS

Home | Current Version | Previous Version | Text Only | Print | Product List | Glossary Off
Versions: 1 2 3 4 5 6 7 8 9 10 11 12 13 14 15 16 17 18 19 20 21 22 23 24 25 26 27 28 29 30 31 32 33 34 35 36 37 38 39 40 41 42 43 44 45 46 47 48 49 50

000
ASUS45 KABQ 022001
RWRNM
NEW MEXICO REGIONAL WEATHER ROUNDUP
NATIONAL WEATHER SERVICE ALBUQUERQUE NM
200 PM MDT SUN AUG 02 2015

NOTE: "FAIR" MEANS FEW OR NO CLOUDS BELOW 12,000 FEET AGL WITH NO
       SIGNIFICANT WEATHER OR OBSTRUCTIONS TO VISION.

      THIS PRODUCT IS RELEASED AS TWO VERSIONS.  ONE VERSION NEAR
      THE TOP OF THE HOUR CONTAINING PRELIMINARY DATA FROM ALBUQUERQUE
      AND OTHER STATIONS.  A FINAL VERSION WITH ADDITIONAL DATA IS
      ISSUED ABOUT 10 MINUTES AFTER THE HOUR.

NMZ501-503-504-510>518-022100-
NORTHWEST PLATEAU/NORTHCENTRAL MOUNTAINS

CITY           SKY/WX    TMP DP  RH WIND       PRES   REMARKS
FARMINGTON     SUNNY     81  52  36 VRB5      30.12F
SANTA FE       MOSUNNY   82  52  35 NW7       30.18F
TAOS           MOSUNNY  N/A N/A N/A W7        30.23F

$$
NMZ402-403-502-505>509-022100-
WESTCENTRAL MOUNTAINS/SOUTHWEST MOUNTAINS

CITY           SKY/WX    TMP DP  RH WIND       PRES   REMARKS
GALLUP         MOSUNNY   76  51  41 CALM      30.20F
SILVER CITY      N/A     82  52  34 W5        30.17F

$$
NMZ407-409-411-412-022100-
SOUTHERN DESERTS

CITY           SKY/WX    TMP DP  RH WIND       PRES   REMARKS
DEMING         MOSUNNY   90  55  30 W9        30.06F
HOLLOMAN AFB   MOSUNNY   93  53  25 S5        30.01F
ALAMOGORDO     SUNNY     91  52  25 S7G17     30.04F
T OR C         PTSUNNY   85  55  35 W24G30    30.08F

$$
NMZ519>523-022100-
CENTRAL VALLEYS/CENTRAL HIGHLANDS

CITY           SKY/WX    TMP DP  RH WIND       PRES   REMARKS
ALBUQUERQUE    PTSUNNY   82  53  36 SW5       30.14F
DOUBLE EAGLE   PTSUNNY   81  59  47 SE7       30.18F
MORIARTY ARPT    N/A     81  50  33 CALM      30.19F
CLINES CORNERS MOSUNNY   76  54  46 W12       30.23F
BELEN          FAIR      84  52  33 SE5       30.12F
SOCORRO        NOT AVBL

$$
NMZ524>526-539-540-022100-
SOUTHCENTRAL MOUNTAINS

CITY           SKY/WX    TMP DP  RH WIND       PRES   REMARKS
RUIDOSO          N/A    N/A N/A N/A MISG        N/A

$$
NMZ527>531-022100-
NORTHEAST HIGHLANDS/NORTHEAST PLAINS

CITY           SKY/WX    TMP DP  RH WIND       PRES   REMARKS
LAS VEGAS      MOSUNNY   81  52  36 VRB5      30.20F
RATON          MOSUNNY   83  51  33 VRB5      30.15F
CLAYTON        MOSUNNY   86  58  38 S6        30.07F

$$
NMZ532>537-022100-
EASTCENTRAL PLAINS

CITY           SKY/WX    TMP DP  RH WIND       PRES   REMARKS
TUCUMCARI      SUNNY     89  60  37 VRB3      30.00F
CANNON AFB     PTSUNNY   89  59  36 W12       30.04F
CLOVIS AIRPORT MOSUNNY   90  57  33 W9        30.05F

$$
NMZ028-029-538-022100-
SOUTHEAST PLAINS

CITY           SKY/WX    TMP DP  RH WIND       PRES   REMARKS
ROSWELL        MOSUNNY   97  53  22 VRB3      29.97F
ARTESIA        PTSUNNY   95  57  28 E12       29.97F
CARLSBAD       PTSUNNY   98  56  24 W17G28    29.95S THUNDER HX  96


$$



USA.gov is the U.S. government's official web portal to all federal, state and local government web resources and services.